Location: Boursonne
(49.2024°N, 3.0468°E)
Time: 10:57:30
(UTC+00:00)

Ariane Rocket - Pass Details

Date: 03 March 2021
Orbit: 759 x 771 km, 98.7° (Epoch: 11 April)

Event Time Altitude Azimuth Distance (km) Brightness Sun altitude
Exits shadow 20:22:15 27° 206° (SSW) 1,466 4.4 -27.6°
Maximum altitude 20:24:37 44° 261° (W) 1,067 4.0 -28.0°
Drops below altitude 10° 20:29:31 10° 334° (NNW) 2,323 6.1 -28.7°
Sets 20:31:57 0° 341° (NNW) 3,253 6.9 -29.1°
